Retour au catalogue

STARLINK-4436

ActifCommunicationsSSO
NORAD 53479·PAYLOAD·🇺🇸 United States

Lancé Aug 12, 2022 depuis Vandenberg Space Force Base

Loading…

Prochains Passages (prochaines 24 heures)

TLE

FraisSource: CelesTrak SupGP

Époque: Sep 15, 2026, 01:18 UTC

1 53479C 22099Q   26258.05465278 -.00041506  00000+0 -12898-2 0  2585
2 53479  97.2863  15.7387 0001051  97.9383 108.4470 15.33426383    15

Suivez STARLINK-4436 en temps réel avec AllMySat

Download on the App Store